Regional Weather Roundup
Issued by NWS Sterling, VA

Home | Current Version | Previous Version | Text Only | Print | Product List | Glossary On
Versions: 1 2 3 4 5 6 7 8 9 10 11 12 13 14 15 16 17 18 19 20 21 22 23 24 25 26 27 28 29 30 31 32 33 34 35 36 37 38 39 40 41 42 43 44 45 46 47 48 49 50
000
ASUS41 KLWX 032110
RWRLWX

REGIONAL WEATHER ROUNDUP
NATIONAL WEATHER SERVICE BALTIMORE MD/WASHINGTON DC
500 PM EDT FRI JUL 03 2015

Note: "FAIR" indicates few or no clouds below 12,000 feet
with no significant weather and/or obstructions to visibility.
 TC=TEMPERATURE CELSIUS

 * =Non NWS site. Station does not report precipitation (e.g. rain,
    snow, etc.), thunder, or fog.

DCZ001-MDZ009-015-VAZ040>042-051-053>054-032200-
WASHINGTON METRO

CITY           SKY/WX    TMP DP  RH WIND       PRES   REMARKS
WASHINGTON NAT CLOUDY    81  65  58 S8        29.95S
DULLES         CLOUDY    77  63  61 S5        29.95S
ANDREWS AFB    CLOUDY    77  71  83 E6        29.95S
FT BELVOIR     CLOUDY    78  67  70 E3        29.94F
QUANTICO       CLOUDY    79  67  66 S8        29.95S
COLLEGE PARK*  CLOUDY    79  64  61 SE7       29.95S
LEESBURG*      CLOUDY    79  66  65 SW10      29.95F
MANASSAS*      CLOUDY    79  66  65 SE6       29.94
GAITHERSBURG*  CLOUDY    75  64  69 SE3       29.99S

$$

MDZ006>007-011-014-032200-
BALTIMORE METRO

CITY           SKY/WX    TMP DP  RH WIND       PRES   REMARKS
BWI AIRPORT    CLOUDY    79  62  56 S7        29.95S
MD SCIENCE CTR   N/A     81  55  40 MISG      29.94F
MARTIN STATE   PTSUNNY   81  63  54 SE9       29.97S
ANNAPOLIS      CLOUDY    77  62  59 S7        29.95S
FORT MEADE*    PTSUNNY   75  64  69 SE7       29.98R

$$

MDZ012-015-019>023-032200-
MARYLAND EASTERN SHORE

CITY           SKY/WX    TMP DP  RH WIND       PRES   REMARKS
OCEAN CITY     MOSUNNY   75  64  68 SE7       29.98S
SALISBURY      PTSUNNY   79  63  57 SE10      29.96F
BAY BRIDGE AP*   N/A     79  63  57 SW5       29.96S
CAMBRIDGE*     CLOUDY    79  63  57 SW5       29.95S

$$

MDZ017>025-032200-
SOUTHERN MARYLAND

CITY           SKY/WX    TMP DP  RH WIND       PRES   REMARKS
PATUXENT RIVER PTSUNNY   78  63  59 SE7       29.95F
ST INIGOES     PTSUNNY   79  63  57 E9        29.94F
LEONARDTOWN*   PTSUNNY   77  61  57 SE8       29.97S

$$

MDZ003>005-032200-
NORTH CENTRAL MARYLAND

CITY           SKY/WX    TMP DP  RH WIND       PRES   REMARKS
FREDERICK*     PTSUNNY   81  66  61 S6        29.97F
HAGERSTOWN APT CLOUDY    78  61  55 S10       29.95F
WESTMINSTER*   CLOUDY    81  64  57 SE5       29.97S

$$

MDZ501>502-032200-
WESTERN MARYLAND

CITY           SKY/WX    TMP DP  RH WIND       PRES   REMARKS
OAKLAND*       CLOUDY    61 N/A N/A SE8       30.00F FOG
CUMBERLAND*    CLOUDY    72  68  88 CALM      29.98S

$$

VAZ025>031-032200-
SHENANDOAH VALLEY

CITY           SKY/WX    TMP DP  RH WIND       PRES   REMARKS
WINCHESTER*    CLOUDY    77  63  61 S5        29.95F
FRONT ROYAL*   CLOUDY    70  64  83 S3        29.95S
LURAY*         CLOUDY    72  68  88 CALM      29.97S
NEW MARKET*    CLOUDY    70  64  80 W5        29.95S
STAUNTON*      CLOUDY    73  66  77 NE3       29.98F
WAYNESBORO*    CLOUDY    70  61  74 SE7       29.98S

$$

WVZ021-048>050-054>055-032200-
EASTERN WEST VIRGINIA PANHANDLE

CITY           SKY/WX    TMP DP  RH WIND       PRES   REMARKS
MARTINSBURG    CLOUDY    77  63  61 E5        29.95F
PETERSBURG*    CLOUDY    70  62  76 CALM      29.96F

$$

VAZ036>039-050-032200-
CENTRAL FOOTHILLS

CITY           SKY/WX    TMP DP  RH WIND       PRES   REMARKS
CHARLOTTESVILL CLOUDY    75  63  66 SE3       29.95F
CULPEPER*      DRIZZLE   76  65  67 CALM      29.95F
ORANGE*        CLOUDY    77  64  65 CALM      29.96F
GORDONSVILLE*  CLOUDY    73  66  78 CALM      29.95R
WARRENTON*     CLOUDY    78  69  73 CALM      29.94F

$$

VAZ055>057-032200-
NORTH AND CENTRAL PIEDMONT

CITY           SKY/WX    TMP DP  RH WIND       PRES   REMARKS
FREDERICKSBRG* CLOUDY    81  66  60 E5        29.93S
STAFFORD*      CLOUDY    77  65  66 E6        29.98S

$$

NCZ024-NYZ072-PAZ021-071-VAZ022-071-032200-
OTHER REGIONAL OBSERVATIONS

CITY           SKY/WX    TMP DP  RH WIND       PRES   REMARKS
NEW YORK CITY  MOSUNNY   79  53  40 CALM      29.98F
PHILADELPHIA   PTSUNNY   82  61  48 S6        29.95F
PITTSBURGH     CLOUDY    78  57  48 VRB3      29.90F
ROANOKE        LGT RAIN  69  66  90 N6        29.96F FOG
RICHMOND       PTSUNNY   82  66  58 E9        29.92F
RALEIGH        PTSUNNY   78  74  87 SW9       29.90F

$$

ANZ530>537-032200-
MARINE OBSERVATIONS

STATION/POSITION TIME  TEMP    WIND        PRES
                       AIR SEA DIR/SP/G
                 (UTC) (F)     (DEG/KT/KT) (MB)
THOMAS PT LIGHT  2000   76 77              1015.0
BALT KEY BRIDGE  2000   78     130/  6/  9 1014.2F
COVE POINT       2000   76     190/ 11/ 12 1015.2F
LEWISETTA        2000   77 81  130/ 10/ 12 1014.1F
SOLOMONS ISLAND  2000      81                N/A
PINEY POINT      2000          160/ 14/ 15   N/A

$$




USA.gov is the U.S. government's official web portal to all federal, state and local government web resources and services.